Location: Bullenkuhlen
(53.7689°N, 9.7495°E)
Time: 22:53:18
(UTC+00:00)

Cosmos 1315 Rocket - Pass Details

Date: 09 April 2020
Orbit: 528 x 569 km, 81.2° (Epoch: 03 June)

Event Time Altitude Azimuth Distance (km) Brightness Sun altitude
Exits shadow 22:32:51 30° 42° (NE) 1,034 4.4 -27.3°
Drops below altitude 10° 22:35:12 10° 23° (NNE) 1,878 6.2 -27.4°
Sets 22:37:27 0° 18° (NNE) 2,784 7.3 -27.5°
